Dewpoint
53 53 53 52 52 53 52 51 52 52 52 52 52 52 53 52 52 52 53 53 53 54 54 54 56 56 52 40 34 44 59 61 51 44 50 52 46 44 42 42 43 43 46 50 52 53 52
53 53 52 52 52 52 51 51 51 51 51 52 52 53 53 53 53 52 53 53 53 55 54 56 57 55 46 37 26 39 43 54 41 33 49 51 44 42 39 37 36 40 40 45 52 53 53
53 53 52 52 52 52 52 51 51 51 51 51 52 53 53 53 52 52 52 52 52 55 55 55 55 51 47 33 25 35 42 48 41 28 42 47 42 39 38 32 32 32 36 41 49 52 55
53 53 52 52 52 52 52 51 51 51 52 52 52 52 52 53 52 52 52 52 52 56 55 55 56 51 40 20 22 32 40 38 38 28 35 38 38 36 35 31 27 29 33 34 43 52 49
53 52 52 52 52 52 52 52 51 51 51 52 52 52 52 52 52 52 51 51 51 57 56 56 54 51 34 21 18 24 37 37 36 37 40 40 37 34 32 31 26 24 27 32 37 51 48
52 52 52 51 51 52 52 52 51 51 52 52 52 52 52 52 52 51 50 50 49 55 56 49 46 35 23 14 17 16 22 37 39 34 35 36 33 30 30 28 23 19 23 25 32 44 46
52 52 51 51 51 52 52 51 51 51 52 52 52 52 52 52 51 50 45 36 38 42 40 25 22 19 15 14 18 19 23 36 41 36 34 34 33 31 30 25 26 19 15 17 21 40 45
52 52 52 52 52 52 51 51 51 51 52 52 52 51 51 51 50 49 44 28 23 26 21 15 12 10 11 14 15 26 31 33 38 32 29 31 31 31 22 25 24 24 19 13 19 35 43
53 52 52 53 52 52 51 51 51 52 52 52 51 51 51 50 49 42 30 27 26 23 17 17 9 8 10 12 11 18 30 30 30 30 29 23 20 23 23 20 19 16 15 14 19 28 39
53 53 53 52 52 52 51 51 52 52 52 51 51 50 50 49 40 30 27 27 26 22 18 11 8 7 8 9 9 13 17 25 27 26 25 26 24 19 19 20 19 16 15 13 14 22 26
53 53 52 52 52 51 51 52 52 52 51 50 50 49 49 49 40 30 28 26 24 20 8 11 7 10 8 6 13 12 16 20 22 22 23 21 24 22 19 18 18 18 18 15 12 13 19
52 52 51 52 51 51 52 52 52 51 50 49 49 48 48 39 41 34 27 27 21 14 0 8 8 5 5 5 8 11 14 15 19 20 19 17 21 19 18 19 18 17 17 19 16 10 7
52 52 52 51 51 52 51 51 50 50 49 49 48 48 47 40 32 29 28 26 14 5 7 8 5 5 4 6 6 6 9 11 7 9 5 7 14 20 22 19 17 18 17 16 15 12 8
52 52 52 52 51 51 49 50 50 50 49 49 48 47 41 36 31 29 29 23 12 8 5 8 6 6 4 5 7 8 7 8 8 11 10 11 6 5 13 21 20 17 17 17 15 13 11
51 51 51 51 49 49 48 50 50 50 49 49 47 40 37 34 29 29 27 19 14 14 11 9 7 4 2 6 6 8 9 5 5 17 15 7 2 7 12 11 16 21 18 17 16 16 15
51 50 50 50 49 49 50 51 51 50 49 48 44 39 30 31 30 27 24 21 20 18 17 13 9 9 7 4 8 9 5 12 10 20 20 16 13 13 12 14 15 14 19 19 18 15 16
51 50 50 49 50 50 51 51 51 50 49 47 44 34 33 33 29 26 22 23 20 20 21 18 16 15 14 12 13 12 12 14 15 17 20 17 14 10 11 15 13 15 17 18 19 19 16
51 50 51 51 51 51 52 51 51 49 48 43 39 29 33 33 29 26 27 26 25 23 25 24 22 20 19 19 18 17 16 16 20 19 18 18 14 10 12 13 13 16 17 15 17 20 22
51 51 51 51 51 52 52 51 50 49 49 44 39 31 32 32 29 28 27 26 26 26 25 25 24 23 22 21 20 20 20 21 20 19 20 19 16 11 12 12 10 12 13 16 15 13 20
50 50 51 51 52 52 51 51 50 50 49 45 40 31 31 29 29 27 27 26 26 26 26 26 25 25 24 22 22 21 21 21 22 21 27 20 16 18 13 11 12 12 11 12 13 11 12
50 50 50 51 51 51 51 51 51 50 49 46 34 29 32 28 29 28 29 28 26 26 27 26 25 25 25 24 21 19 20 25 26 26 23 20 16 17 15 12 10 10 12 12 12 16 16
50 50 51 50 51 51 52 51 51 50 49 43 34 34 31 29 29 28 30 29 27 29 29 29 28 28 26 25 25 25 24 24 25 28 28 27 18 18 18 18 14 11 11 11 13 17 18
50 50 51 51 50 51 51 52 51 49 49 37 38 37 32 29 28 28 29 30 30 32 31 29 31 30 28 28 28 28 26 24 25 28 27 27 30 28 23 20 20 14 12 11 11 13 18
50 50 50 51 51 51 51 51 51 49 49 43 41 38 32 28 30 32 32 31 31 32 32 30 30 30 31 33 32 30 27 23 21 22 24 25 25 29 26 25 23 25 18 11 10 10 8
50 50 51 51 51 50 51 51 51 50 50 44 43 39 37 28 30 31 31 33 33 34 33 30 31 32 33 31 32 27 23 26 23 21 21 23 26 25 23 22 23 19 18 29 30 16 15
50 50 51 51 51 50 51 51 51 50 49 46 46 45 41 34 32 34 33 34 32 31 32 31 33 34 33 31 31 28 23 27 29 30 29 27 21 23 25 18 13 16 31 31 30 22 38
50 50 51 51 50 50 50 51 51 50 50 49 45 49 45 37 36 35 33 35 36 34 33 33 34 33 33 32 31 30 28 33 26 24 25 30 28 23 24 25 21 33 31 31 23 22 38
50 51 50 50 50 50 50 51 51 51 51 49 44 48 45 42 37 37 36 36 37 36 34 34 36 36 35 33 32 30 30 32 31 29 27 28 29 30 27 23 22 35 33 27 36 39 38
50 50 50 50 49 51 51 51 51 51 51 50 47 46 47 42 39 41 40 39 39 38 36 36 39 35 36 36 35 34 32 34 31 27 32 32 35 33 28 25 38 40 39 39 39 39 38
Wind_Speed
18 18 19 20 20 21 22 23 23 23 25 27 27 26 26 27 27 26 25 23 22 21 17 12 9 6 4 7 4 14 14 11 13 17 21 22 22 21 21 20 20 19 19 10 7 5 6
16 16 17 18 19 20 22 23 24 24 25 26 27 27 27 27 28 27 25 22 21 20 11 9 7 7 6 9 4 2 5 15 16 23 21 24 17 18 18 21 19 18 14 14 7 16 11
18 18 19 20 20 21 22 23 24 24 25 27 27 28 28 28 29 29 26 23 20 16 9 3 5 9 12 8 2 3 7 14 19 24 21 23 19 16 18 13 18 17 20 12 12 10 13
16 18 18 19 19 20 21 23 24 24 24 27 28 28 28 29 30 29 26 23 20 13 8 5 5 8 7 4 6 7 9 12 16 23 24 17 17 14 19 16 17 14 20 20 18 19 15
18 18 19 20 20 20 21 23 23 24 25 26 28 28 28 29 30 28 26 23 20 12 9 8 7 10 7 7 8 4 6 13 17 19 21 16 15 16 15 20 18 17 20 22 17 25 16
17 17 18 19 19 19 21 22 23 25 25 26 30 30 30 30 33 28 28 18 5 10 11 11 16 11 9 4 2 4 7 11 16 17 15 15 12 18 19 21 22 19 21 20 21 22 18
17 18 18 19 20 20 20 21 23 24 25 26 29 31 30 32 35 30 18 6 5 6 13 12 2 7 4 5 9 8 9 12 15 13 18 22 17 23 23 25 24 24 22 20 20 21 21
16 17 18 19 19 20 21 22 23 25 26 27 30 33 31 32 35 36 14 8 7 8 9 12 6 6 2 6 5 5 10 12 15 16 19 17 25 23 21 23 21 23 23 23 14 17 23
15 16 17 18 19 20 21 22 23 25 25 27 29 33 33 34 36 19 12 6 8 8 8 14 13 10 7 7 6 9 10 16 17 18 21 25 15 26 24 20 20 21 21 19 19 11 22
15 16 15 17 18 19 21 22 23 24 26 27 29 30 31 34 13 14 6 6 8 3 7 16 10 5 7 7 7 4 5 9 18 19 22 25 25 16 24 24 21 22 18 21 22 21 19
15 15 16 17 18 20 22 23 24 25 26 28 30 30 30 14 17 10 9 9 9 4 6 13 11 5 2 12 10 10 1 7 13 16 13 22 25 24 22 18 23 21 19 17 19 24 24
14 16 18 19 20 21 22 23 25 25 26 29 31 31 27 8 10 16 7 9 5 7 6 7 7 9 11 10 6 5 7 8 10 10 15 18 19 20 23 22 18 18 18 20 20 20 28
14 16 17 18 20 21 23 24 25 26 28 30 32 32 20 13 8 9 10 10 8 11 12 8 10 7 11 13 6 7 10 13 11 10 16 16 20 20 15 19 24 18 18 21 22 23 30
15 17 18 19 20 22 24 26 26 27 29 31 35 34 11 13 11 10 10 12 8 8 9 9 2 2 6 8 8 4 6 11 12 10 18 16 16 23 20 20 20 26 24 23 21 23 28
16 18 19 20 22 24 26 26 26 28 30 30 37 14 13 10 6 8 12 13 3 14 15 4 6 7 10 9 4 4 9 14 11 5 8 12 20 22 13 23 23 25 29 29 30 30 27
17 19 20 22 23 24 25 26 27 28 31 29 15 15 7 6 3 8 10 16 8 17 12 6 7 9 10 9 13 6 9 5 1 7 8 9 18 18 18 10 16 25 25 26 26 32 34
19 19 20 22 23 24 25 25 26 29 33 36 6 7 8 9 5 8 12 6 12 12 11 10 10 13 8 13 11 6 11 4 2 5 1 12 14 22 21 15 16 19 21 27 26 27 31
19 20 20 21 23 23 24 24 25 27 35 16 10 4 10 6 9 8 9 12 4 9 6 5 4 6 8 13 15 10 9 10 10 10 7 15 13 18 21 23 22 22 27 26 26 26 26
20 20 20 21 22 23 23 23 24 23 20 12 9 5 7 8 5 10 9 10 8 12 10 8 6 6 7 8 7 9 12 12 4 3 9 11 9 15 19 19 25 17 24 25 27 28 32
20 20 20 20 21 21 21 22 24 23 18 12 8 3 7 11 11 12 8 7 8 9 6 8 8 8 9 10 9 7 8 6 10 6 7 4 15 22 23 15 17 14 19 23 28 29 26
20 20 20 20 20 20 20 22 25 27 21 8 5 8 5 13 11 10 14 11 6 8 11 5 2 6 8 10 9 10 10 5 8 6 7 8 19 22 26 30 24 21 20 22 25 30 30
20 19 19 19 19 20 20 21 24 26 33 2 10 7 6 8 9 5 12 10 9 13 9 11 11 13 11 9 14 17 16 14 11 8 8 18 20 22 26 27 25 25 23 22 24 24 28
19 18 18 18 18 18 18 19 23 26 23 8 6 3 7 7 10 8 8 6 7 7 3 5 7 9 7 10 12 14 18 17 18 16 16 12 9 17 25 21 26 30 25 24 25 25 22
18 17 17 17 17 16 16 17 20 23 20 9 7 6 8 9 8 6 6 4 6 6 4 9 5 6 9 14 17 20 22 22 23 19 21 20 17 8 17 19 20 20 26 26 31 30 26
17 16 17 16 15 13 13 14 17 20 23 10 10 8 8 12 6 7 6 4 3 3 6 5 2 7 11 12 10 10 12 11 20 22 23 26 23 13 15 20 20 27 13 9 10 15 11
16 15 15 14 13 10 10 10 11 15 20 9 10 9 7 7 12 2 3 5 3 7 6 2 6 6 7 8 4 5 6 10 2 4 11 25 24 20 15 19 21 24 7 9 11 14 18
14 14 14 12 10 7 6 6 7 10 13 10 5 8 7 6 9 11 7 4 4 2 4 3 7 4 8 6 5 3 4 6 5 9 8 5 15 21 22 17 19 4 4 9 14 9 19
12 12 11 10 8 5 4 3 4 7 10 10 4 5 8 5 7 8 3 1 3 1 6 8 2 4 5 4 4 5 4 5 5 11 12 7 6 10 16 17 19 4 9 15 11 15 19
10 10 10 7 6 5 5 3 4 6 7 7 5 4 5 6 6 10 5 1 3 3 6 3 2 4 4 1 2 3 3 4 6 6 15 3 6 6 5 6 13 8 6 10 13 15 19
Wind_Direction
1 360 358 356 354 352 350 349 347 345 342 339 339 337 336 333 333 331 327 323 318 313 304 296 273 241 232 220 259 144 161 172 193 204 218 227 208 211 221 229 234 239 251 225 161 171 189
354 354 354 352 350 348 347 346 345 344 341 336 335 335 335 332 330 329 325 321 318 315 305 294 248 185 241 251 44 72 188 161 192 197 213 230 213 217 231 244 248 253 238 243 193 191 182
350 350 350 348 347 346 344 343 342 342 339 335 334 334 333 330 328 327 323 318 313 311 301 282 187 223 256 286 340 286 170 182 198 195 208 227 222 235 240 273 267 270 269 252 199 218 196
346 346 345 344 345 343 341 341 340 339 338 333 332 333 331 329 326 324 321 316 304 297 282 240 224 251 280 34 313 223 190 173 188 198 224 217 228 252 251 254 263 262 251 254 222 206 222
346 345 343 343 344 342 338 337 337 335 335 332 330 330 330 327 324 324 320 312 293 279 263 241 250 215 241 142 202 158 229 186 182 204 231 241 219 234 248 251 256 247 240 231 240 195 194
341 343 343 340 340 340 337 336 335 334 334 333 329 329 330 328 324 326 322 292 284 283 232 240 259 263 223 170 89 226 212 207 188 197 208 226 217 235 233 231 230 237 220 250 227 197 201
341 341 340 339 339 337 336 336 334 334 333 332 328 328 330 328 324 323 336 286 218 210 232 267 155 251 141 135 197 214 174 202 195 197 206 209 209 219 226 230 242 265 276 233 253 187 193
339 338 338 337 337 337 336 335 333 332 331 331 328 327 329 329 322 316 297 291 24 327 297 213 244 259 300 276 177 169 189 189 196 205 210 199 229 230 230 239 231 256 265 273 250 190 193
339 336 336 335 336 336 333 333 331 329 328 329 327 326 327 328 320 300 264 355 315 303 262 207 212 219 182 222 248 140 207 220 200 220 217 227 224 218 239 239 246 246 249 259 264 231 188
339 334 337 335 335 333 332 331 329 326 327 328 325 323 325 329 305 295 250 359 306 319 268 161 188 198 196 240 208 117 279 287 229 240 222 230 244 236 217 240 238 246 243 253 271 273 253
341 339 340 340 338 334 334 331 328 326 328 327 323 321 321 317 309 300 0 314 321 235 268 153 125 87 150 215 113 179 171 246 259 232 244 234 233 237 244 239 237 250 260 256 242 265 273
344 345 343 341 338 337 331 327 326 325 327 324 319 318 327 272 217 261 315 310 241 231 233 134 131 178 198 206 199 116 204 222 309 290 278 264 270 235 243 241 238 252 251 269 269 248 246
348 345 344 341 338 333 331 328 326 326 326 324 320 316 314 297 291 333 309 265 229 244 136 147 173 179 205 173 177 233 210 204 229 215 236 240 252 262 264 246 238 227 233 239 241 238 243
346 345 343 341 338 336 335 329 327 327 327 325 322 315 269 252 283 304 281 251 258 258 103 79 64 103 238 174 226 171 259 250 254 271 281 283 232 216 231 236 243 214 226 228 227 237 243
346 346 344 341 341 339 335 328 328 329 329 329 319 271 235 227 312 289 268 236 313 8 20 44 158 259 229 162 284 203 245 268 295 64 302 293 254 294 264 216 226 245 225 237 259 267 258
344 346 344 341 337 336 332 331 332 332 329 330 322 295 92 319 317 265 256 263 65 37 4 7 308 323 279 213 177 247 253 45 242 53 344 304 303 288 283 213 255 231 254 233 232 248 259
341 341 342 338 333 335 333 334 335 336 332 322 264 237 51 332 250 247 250 46 51 63 15 359 339 321 326 299 331 291 298 32 178 272 108 306 286 275 289 264 233 232 246 257 268 231 249
339 336 339 336 333 336 335 335 337 342 341 339 291 328 17 309 249 242 48 22 341 17 18 3 331 305 305 316 312 303 284 294 37 358 307 317 309 277 263 272 268 229 262 252 248 254 262
337 336 339 338 337 336 338 339 338 345 2 328 294 44 38 315 306 352 70 74 33 8 17 7 332 352 340 307 296 280 290 292 82 338 7 338 283 275 265 265 265 249 243 253 264 251 254
336 337 339 340 338 339 343 340 338 342 347 333 286 352 73 42 21 354 20 37 66 68 52 355 322 317 321 294 282 294 312 297 11 305 40 316 281 280 274 273 337 304 245 257 268 254 251
336 336 338 341 342 343 343 340 339 338 336 316 325 49 342 13 21 44 16 31 41 25 1 10 25 4 350 312 297 274 251 295 297 268 248 250 262 270 277 282 286 280 280 281 266 256 257
336 335 335 341 346 344 343 343 341 341 332 288 5 355 66 23 21 30 40 54 31 9 358 359 346 353 328 304 313 316 317 299 274 270 272 280 256 266 273 282 274 263 262 262 273 277 273
335 336 337 341 346 344 346 349 344 347 344 29 9 320 331 28 43 47 43 22 13 33 357 355 345 325 318 347 326 297 293 285 266 259 272 243 253 262 270 273 277 266 253 258 261 261 267
335 336 337 344 345 346 349 354 348 348 357 349 8 321 48 60 71 48 20 22 1 5 313 317 347 308 324 330 307 294 274 267 263 254 247 247 253 259 267 284 268 258 277 249 245 251 256
336 336 338 344 344 346 351 359 352 345 350 2 24 12 2 51 53 85 37 11 344 316 275 318 279 310 294 299 312 299 269 243 258 247 241 233 230 234 248 255 266 283 286 360 347 253 272
333 335 338 342 345 346 354 5 359 345 345 344 42 339 339 18 41 115 246 71 335 314 188 240 10 338 338 310 274 279 314 328 268 252 277 286 235 240 234 249 252 256 61 348 328 261 22
331 333 336 339 347 350 352 7 360 340 340 337 53 351 299 355 56 24 35 36 324 358 277 317 340 336 355 359 291 321 323 342 307 301 298 271 262 234 229 243 259 57 346 309 258 271 343
327 331 330 334 345 341 326 335 335 320 334 337 49 24 349 351 11 48 49 28 172 240 319 9 269 23 10 9 335 1 328 351 300 298 293 298 235 196 239 247 257 65 242 243 340 326 321
323 325 322 325 332 337 318 308 291 303 325 334 286 98 338 275 338 352 52 37 182 208 320 10 52 26 46 50 34 310 322 311 320 309 334 324 354 303 223 277 50 19 335 317 310 296 302